EW4156 Weather Reports


time (UTC)temp
F
wind
direction
speed
knots
gust
knots
rain 1hr
in
rain 24hr
in
rain mn
in
humidity
%
barometer
mb
20260506033017 70 239 0.9 1.7 0.00 0.00 0.00 54 1014.9
20260506031518 70 242 0.0 1.7 0.00 0.00 0.00 52 1014.8
20260506030016 70 246 0.0 1.7 0.00 0.00 0.00 51 1015.0
20260506024518 70 249 0.0 0.9 0.00 0.00 0.00 50 1015.3
20260506023019 70 249 0.0 0.9 0.00 0.00 0.00 48 1015.0
20260506021516 71 249 0.0 0.9 0.00 0.00 0.00 47 1014.7
20260506020014 71 249 0.0 0.9 0.00 0.00 0.00 46 1014.7
20260506014515 71 247 0.0 0.9 0.00 0.00 0.00 46 1014.8
20260506013015 71 276 0.0 1.7 0.00 0.00 0.00 46 1014.9
20260506011531 71 254 0.0 0.9 0.00 0.00 0.00 46 1014.5
20260506010012 72 266 0.0 0.9 0.00 0.00 0.00 45 1014.8
20260506004525 72 272 0.0 0.9 0.00 0.00 0.00 44 1014.7
20260506003011 73 264 0.0 0.9 0.00 0.00 0.00 43 1014.9
20260506001511 74 283 0.0 0.9 0.00 0.00 0.00 43 1014.8
20260506000010 74 298 0.0 2.6 0.00 0.00 0.00 43 1014.6
20260505234509 75 291 0.0 1.7 0.00 0.00 0.00 42 1014.6
20260505233016 76 259 0.0 1.7 0.00 0.00 0.00 41 1014.6
20260505231508 78 266 0.0 3.5 0.00 0.00 0.00 41 1014.5
20260505230008 79 202 0.0 0.9 0.00 0.00 0.00 39 1014.4
20260505224505 79 247 0.0 1.7 0.00 0.00 0.00 40 1014.4
20260505223015 80 201 0.9 2.6 0.00 0.00 0.00 38 1014.3
20260505221504 81 269 0.0 1.7 0.00 0.00 0.00 37 1014.4
20260505220005 82 247 0.0 3.5 0.00 0.00 0.00 35 1014.1
20260505214505 83 219 0.9 3.5 0.00 0.00 0.00 35 1014.3
20260505213100 83 221 0.0 1.7 0.00 0.00 0.00 35 1014.3
20260505211558 83 236 0.9 2.6 0.00 0.00 0.00 37 1014.6
20260505210055 83 263 0.0 2.6 0.00 0.00 0.00 36 1014.5
20260505204558 82 157 0.9 2.6 0.00 0.00 0.00 37 1014.9
20260505203050 81 232 0.9 3.5 0.00 0.00 0.00 37 1015.2
20260505201549 80 229 0.9 2.6 0.00 0.00 0.00 39 1015.3
20260505200042 79 260 0.0 1.7 0.00 0.00 0.00 41 1015.5
20260505194541 78 328 0.9 4.3 0.00 0.00 0.00 39 1015.7
20260505193042 78 238 1.7 4.3 0.00 0.00 0.00 42 1016.1
20260505191537 78 164 0.9 2.6 0.00 0.00 0.00 41 1015.9
20260505190035 79 221 0.0 3.5 0.00 0.00 0.00 42 1016.1
20260505184533 79 190 0.0 2.6 0.00 0.00 0.00 40 1016.3
20260505183045 79 263 0.0 1.7 0.00 0.00 0.00 41 1016.4
20260505181531 79 189 0.9 2.6 0.00 0.00 0.00 43 1016.6
20260505180029 78 240 0.9 4.3 0.00 0.00 0.00 40 1017.0
20260505174529 79 188 0.0 2.6 0.00 0.00 0.00 41 1017.0
20260505173026 78 169 0.0 3.5 0.00 0.00 0.00 43 1017.4
20260505171524 78 232 0.0 2.6 0.00 0.00 0.00 43 1017.5
20260505170028 77 190 0.9 2.6 0.00 0.00 0.00 43 1017.5
20260505164519 77 252 0.9 3.5 0.00 0.00 0.00 44 1017.4
20260505163015 75 243 0.0 2.6 0.00 0.00 0.00 51 1017.4
20260505161512 74 314 1.7 5.2 0.00 0.00 0.00 49 1017.5
20260505153005 72 292 0.9 3.5 0.00 0.00 0.00 53 1017.8
20260505151600 70 254 0.0 3.5 0.00 0.00 0.00 57 1017.7
20260505124535 58 297 0.0 0.0 0.00 0.00 0.00 76 1017.4
20260505123025 58 298 0.0 0.0 0.00 0.00 0.00 77 1017.2
20260505121524 57 298 0.0 0.0 0.00 0.00 0.00 77 1016.9
20260505120031 56 298 0.0 0.0 0.00 0.00 0.00 78 1017.1
20260505114520 55 299 0.0 0.0 0.00 0.00 0.00 81 1017.0
20260505113018 53 299 0.0 0.0 0.00 0.00 0.00 82 1016.6
20260505111518 53 299 0.0 0.0 0.00 0.00 0.00 82 1016.5
20260505101512 53 299 0.0 0.0 0.00 0.00 0.00 79 1016.4
20260505100010 53 298 0.0 0.0 0.00 0.00 0.00 78 1016.6
20260505094511 54 298 0.0 0.0 0.00 0.00 0.00 78 1016.5
20260505093008 54 299 0.0 0.0 0.00 0.00 0.00 78 1016.3
20260505091506 54 299 0.0 0.0 0.00 0.00 0.00 77 1016.3
20260505090005 54 299 0.0 0.0 0.00 0.00 0.00 77 1016.6
20260505084510 54 299 0.0 0.0 0.00 0.00 0.00 77 1016.7
20260505083002 55 298 0.0 0.0 0.00 0.00 0.00 77 1016.6
20260505081504 55 299 0.0 0.0 0.00 0.00 0.00 78 1016.5
20260505080112 55 298 0.0 0.0 0.00 0.00 0.00 78 1016.6
20260505074558 55 299 0.0 0.0 0.00 0.00 0.00 77 1016.5
20260505073101 55 298 0.0 0.0 0.00 0.00 0.00 76 1016.5
20260505071556 55 299 0.0 0.0 0.00 0.00 0.00 75 1016.5
20260505070053 56 300 0.0 0.0 0.00 0.00 0.00 74 1016.5
20260505064558 56 297 0.0 0.0 0.00 0.00 0.00 73 1016.6
20260505063052 57 299 0.0 0.0 0.00 0.00 0.00 72 1016.6
20260505061551 57 299 0.0 0.0 0.00 0.00 0.00 71 1016.6
20260505060045 57 298 0.0 0.0 0.00 0.00 0.00 71 1016.7
20260505054545 58 298 0.0 0.0 0.00 0.00 0.00 71 1016.7
20260505053105 58 299 0.0 0.0 0.00 0.00 0.00 69 1016.8
20260505051539 59 299 0.0 0.0 0.00 0.00 0.00 66 1016.8
20260505041537 59 297 0.0 0.0 0.00 0.00 0.00 65 1016.7
20260505040026 60 298 0.0 0.0 0.00 0.00 0.00 63 1016.6
20260505034529 61 297 0.0 0.0 0.00 0.00 0.00 62 1016.8